Wind_Speed
11 12 12 12 13 13 14 14 13 12 12 12 11 10 10 9 8 7 6 5 3 2 2 1 2 1 1 3 4 5 5 6 6 7 8 9 8 9 10 10 10 10 10
9 10 10 10 11 12 13 13 12 12 11 11 11 10 10 9 8 7 6 5 4 2 2 1 1 1 2 3 4 4 5 6 6 7 8 8 9 9 10 10 10 11 11
8 9 9 9 10 11 12 12 12 11 10 10 10 10 10 9 9 8 7 5 4 4 3 3 3 3 3 4 5 5 5 6 7 7 8 8 9 10 10 11 11 12 11
8 8 8 8 9 9 10 11 11 11 10 10 9 9 9 9 8 8 7 6 5 5 4 4 3 3 4 4 5 5 5 6 6 7 8 9 10 11 11 11 11 12 12
7 7 6 7 7 9 10 10 11 11 10 10 9 9 9 9 8 8 8 7 5 5 5 5 4 4 4 5 5 5 5 5 6 7 8 8 9 11 12 11 12 12 12
8 7 7 7 7 9 9 10 10 10 11 10 10 9 8 8 8 8 8 7 6 5 5 5 5 5 5 5 6 6 7 6 7 7 8 8 9 10 11 12 12 13 13
8 8 8 8 8 8 9 10 10 10 10 10 10 9 8 8 8 8 7 7 6 6 7 6 5 5 5 5 6 6 7 8 8 8 9 9 9 10 11 11 12 13 14
9 8 9 8 8 9 9 9 10 10 10 10 10 9 9 8 8 7 8 8 8 7 7 6 6 6 6 6 6 7 7 8 8 9 10 10 10 10 10 11 12 13 14
10 10 11 11 10 9 9 10 11 11 11 11 11 10 10 9 9 8 9 9 8 8 7 7 7 7 7 7 7 8 8 8 9 9 10 11 11 11 11 12 13 13 15
14 14 14 12 12 11 10 10 11 12 11 12 11 10 10 10 10 9 9 9 9 8 8 8 8 8 9 9 9 9 10 9 9 10 10 11 11 12 12 12 13 14 15
14 15 14 13 14 14 14 13 13 13 12 12 12 11 11 11 11 11 10 10 10 10 9 9 9 9 10 10 10 10 10 10 11 11 11 12 12 13 13 14 14 15 16
16 16 16 16 15 16 16 16 15 14 14 13 13 13 14 13 13 13 13 13 12 12 11 12 12 11 11 11 11 11 12 12 12 12 13 13 14 15 15 15 16 17 18
16 17 18 18 18 18 18 17 16 16 16 15 14 15 15 15 16 16 16 15 14 13 13 13 14 13 13 13 13 13 13 13 13 13 14 15 16 16 17 17 19 19 20
17 19 20 21 21 20 20 19 18 18 17 16 17 17 17 17 17 17 16 17 16 16 15 15 15 15 15 15 15 15 15 14 15 15 16 16 17 18 19 19 20 21 22
20 22 23 23 22 21 21 21 20 20 19 19 19 19 19 19 19 19 18 18 18 18 18 17 16 16 16 16 16 16 16 16 16 17 17 19 19 20 20 21 22 22 22
24 24 24 24 24 23 23 23 22 23 21 21 21 20 21 20 21 20 20 19 19 19 18 19 18 17 17 17 18 18 18 18 19 19 20 21 21 22 22 23 23 23 23
26 26 25 26 25 24 24 24 24 24 23 23 23 23 23 22 22 22 22 21 21 20 19 19 19 19 19 19 20 21 21 21 21 22 22 23 24 24 25 25 25 25 25
28 27 27 26 25 25 25 26 27 26 25 25 25 25 25 25 24 24 23 22 21 21 21 21 22 22 21 21 22 22 23 23 23 24 24 24 25 26 26 26 26 26 26
27 27 27 27 26 25 26 26 27 27 26 26 26 26 27 26 25 24 25 24 23 23 23 24 24 24 24 24 24 25 25 26 25 26 26 26 26 26 27 26 26 26 26
30 30 29 28 28 28 27 27 28 28 28 28 28 28 28 27 27 26 26 25 25 25 25 26 26 26 25 26 26 26 27 26 26 26 26 26 26 27 27 26 27 27 27
32 32 32 31 31 31 30 30 29 29 29 29 29 29 28 28 27 27 27 27 27 26 26 26 27 27 27 27 28 28 27 27 28 28 28 28 28 28 27 27 27 27 28
35 35 34 34 34 33 32 32 31 30 30 31 30 30 29 29 29 29 29 29 29 28 28 29 29 28 28 28 29 29 29 29 29 28 28 29 29 29 29 29 29 29 29
36 36 37 36 36 35 34 33 33 32 31 31 31 30 30 31 31 32 32 31 31 31 31 31 31 31 31 31 31 31 31 31 31 30 29 30 30 30 29 29 30 30 30
38 38 38 38 37 37 35 35 34 33 33 33 32 32 32 33 34 34 33 34 34 35 35 34 34 34 33 33 32 32 32 32 32 31 31 31 31 31 31 31 32 32 32
37 37 37 37 37 37 36 36 36 36 35 35 34 34 34 35 35 36 35 35 35 36 36 35 35 36 35 33 33 33 32 32 32 32 32 33 33 33 33 33 33 33 33
37 36 36 36 36 36 37 38 38 37 37 36 36 36 37 38 38 38 37 37 37 37 36 36 36 36 36 35 35 34 33 33 34 34 35 35 35 35 35 35 35 34 34
Wind_Direction
16 21 30 35 36 37 38 38 37 37 38 38 38 37 37 36 33 29 27 30 32 42 44 31 32 33 233 233 236 239 242 246 246 247 246 246 246 250 249 255 258 259 263
7 14 24 27 29 29 30 30 30 30 32 32 32 32 30 28 25 21 16 16 14 2 351 334 312 323 294 263 249 251 250 251 255 255 255 251 251 254 254 256 260 263 264
357 2 10 15 17 18 19 21 21 22 24 24 24 25 25 26 24 19 15 13 4 354 348 328 301 292 284 273 262 253 257 256 257 256 257 256 256 259 262 262 263 264 268
343 348 359 3 4 4 7 11 11 13 14 13 13 14 15 18 18 13 9 6 357 346 339 336 322 307 290 283 273 261 259 259 260 263 261 263 262 265 265 266 266 266 268
325 330 343 353 355 354 356 359 2 5 5 3 4 4 5 5 5 5 4 3 354 345 338 329 320 316 299 289 282 273 264 266 264 266 268 271 271 271 272 271 272 271 272
306 315 327 340 341 342 344 346 350 354 355 354 356 357 357 356 357 358 360 356 351 346 340 322 313 310 306 296 283 274 272 269 268 270 272 275 276 275 274 272 270 272 273
298 301 313 323 324 328 330 332 334 336 340 342 344 348 349 349 351 353 356 355 353 351 347 336 323 315 315 312 303 286 275 273 272 274 275 278 280 280 282 279 276 277 278
282 290 299 303 309 311 317 323 326 327 327 329 332 335 335 337 341 344 347 348 348 344 341 338 331 321 315 309 307 306 294 283 281 280 280 283 287 287 287 286 284 281 281
277 286 294 287 291 295 302 314 317 320 321 320 322 325 327 327 330 334 335 337 336 335 335 332 324 319 313 307 301 300 299 298 292 286 284 283 286 288 290 290 288 286 284
278 281 284 278 286 290 292 298 307 308 309 310 312 315 317 318 319 319 321 326 327 324 326 325 319 313 310 306 301 295 294 296 297 293 288 286 286 287 290 292 291 289 289
275 279 283 279 292 293 296 297 301 302 299 298 298 301 306 307 305 306 307 310 312 312 313 314 314 308 303 300 299 297 294 294 296 295 292 290 291 291 291 291 290 290 291
275 281 282 286 289 291 292 290 291 295 293 290 290 291 294 296 296 297 296 296 297 299 300 303 305 304 299 296 294 295 293 294 296 295 292 289 290 293 293 293 293 292 291
273 277 283 285 286 285 286 285 288 290 288 288 289 289 288 290 292 290 289 290 291 290 292 296 298 298 296 293 289 289 292 294 294 294 294 291 290 291 293 294 293 292 292
276 281 287 288 289 285 285 284 284 286 284 285 287 288 288 289 288 286 284 283 284 285 285 288 290 292 293 290 287 284 286 290 293 294 294 294 291 290 292 293 292 291 291
276 280 284 286 288 288 288 286 284 286 283 286 286 286 286 284 283 282 281 282 280 282 282 286 288 286 287 289 287 285 283 284 289 293 294 294 294 293 292 293 294 294 293
276 279 282 283 285 286 287 285 286 285 283 285 285 283 285 283 279 281 283 284 284 284 282 283 286 284 283 284 286 285 283 285 287 289 292 293 293 293 292 292 293 293 293
276 277 279 282 284 283 284 285 286 286 284 287 287 286 285 286 280 279 282 282 283 284 282 281 281 282 283 283 283 282 283 284 285 288 289 289 291 293 296 295 294 293 293
272 275 277 279 281 283 282 283 283 282 283 286 288 288 287 283 278 275 277 278 280 282 282 281 279 279 280 282 285 284 283 284 286 287 289 291 292 292 293 294 294 293 292
273 275 275 278 279 280 280 280 281 282 282 283 284 285 285 283 278 275 275 275 276 278 280 282 283 282 281 280 281 284 284 285 285 285 288 290 290 291 292 293 293 293 293
273 275 277 278 278 279 279 280 280 280 280 281 282 284 284 285 280 277 278 277 278 278 278 280 282 282 282 283 284 285 285 284 285 287 288 289 290 291 292 294 293 293 292
271 273 275 276 277 278 278 279 280 279 279 281 282 282 283 283 280 277 277 278 279 280 282 282 283 282 281 282 284 285 287 285 286 287 286 288 288 289 291 293 293 293 292
270 271 273 275 277 277 277 278 278 278 278 279 279 280 280 280 279 276 275 276 278 280 282 282 282 282 283 283 284 286 288 288 287 286 285 285 288 288 289 290 291 292 293
269 271 273 274 275 275 275 275 275 276 277 277 278 277 277 278 278 279 276 275 277 280 279 279 280 280 280 281 282 283 285 288 287 286 285 284 285 286 287 288 290 291 292
270 271 272 273 273 273 273 273 274 275 276 276 277 276 275 276 277 279 276 276 278 280 278 277 277 278 279 280 281 283 284 285 286 285 284 284 285 285 286 287 288 290 291
269 270 271 271 272 273 272 273 274 274 275 275 275 275 274 275 277 278 278 277 279 280 280 280 280 278 279 281 281 282 283 284 285 284 283 284 285 285 285 286 288 289 291
269 270 270 272 272 272 273 273 272 273 273 273 273 273 274 275 276 276 276 277 279 281 282 282 282 281 282 281 281 282 284 285 284 284 285 285 284 284 284 285 287 289 289
Height
5924 5922 5920 5918 5916 5915 5913 5911 5909 5908 5906 5905 5903 5902 5901 5899 5898 5897 5896 5895 5894 5893 5893 5892 5892 5891 5891 5891 5891 5891 5891 5891 5891 5891 5891 5891 5891 5891 5891 5891 5891 5891 5891
5924 5922 5921 5919 5918 5916 5914 5913 5911 5909 5907 5906 5904 5903 5901 5900 5899 5897 5896 5895 5894 5893 5892 5892 5891 5891 5891 5890 5890 5890 5890 5889 5889 5890 5889 5889 5890 5889 5890 5890 5889 5889 5889
5923 5922 5921 5920 5918 5917 5915 5913 5912 5910 5908 5906 5905 5903 5901 5900 5899 5897 5896 5895 5893 5893 5892 5891 5890 5890 5890 5889 5889 5889 5889 5888 5888 5888 5888 5888 5887 5887 5888 5887 5887 5886 5886
5923 5921 5920 5919 5918 5917 5915 5913 5912 5910 5908 5907 5905 5903 5902 5900 5898 5897 5895 5894 5893 5892 5891 5890 5890 5889 5889 5888 5888 5887 5887 5886 5886 5886 5886 5886 5885 5885 5885 5885 5884 5883 5883
5923 5921 5919 5918 5918 5917 5915 5913 5911 5909 5908 5906 5904 5903 5901 5900 5898 5896 5895 5894 5892 5891 5890 5889 5888 5888 5887 5887 5886 5885 5885 5885 5884 5884 5884 5883 5883 5882 5882 5882 5881 5880 5879
5921 5920 5919 5918 5917 5916 5915 5913 5911 5909 5907 5906 5904 5902 5900 5899 5897 5896 5894 5893 5892 5891 5889 5888 5887 5886 5886 5885 5884 5884 5883 5882 5882 5882 5881 5881 5880 5879 5879 5879 5878 5877 5876
5917 5917 5917 5916 5915 5914 5913 5912 5910 5908 5906 5905 5903 5901 5900 5898 5896 5895 5893 5892 5890 5889 5888 5887 5886 5885 5884 5883 5882 5882 5881 5880 5880 5879 5879 5878 5878 5877 5876 5876 5875 5874 5873
5914 5914 5913 5913 5913 5912 5911 5909 5908 5906 5905 5903 5901 5900 5898 5897 5895 5893 5892 5891 5889 5888 5886 5885 5884 5883 5882 5881 5880 5879 5879 5878 5877 5877 5876 5875 5875 5874 5873 5873 5872 5871 5870
5910 5910 5910 5910 5909 5909 5907 5906 5905 5904 5903 5901 5900 5898 5896 5895 5893 5892 5890 5889 5887 5886 5885 5883 5882 5881 5880 5879 5878 5877 5876 5875 5875 5874 5873 5872 5872 5871 5870 5869 5868 5868 5866
5907 5906 5905 5905 5905 5905 5904 5903 5902 5901 5900 5899 5898 5896 5895 5893 5891 5890 5888 5887 5885 5884 5882 5881 5880 5878 5877 5876 5875 5874 5873 5873 5872 5871 5870 5869 5868 5867 5866 5865 5864 5863 5862
5902 5902 5901 5902 5902 5902 5901 5900 5899 5898 5897 5895 5894 5893 5892 5890 5889 5887 5886 5884 5882 5881 5880 5878 5877 5875 5874 5873 5872 5871 5870 5869 5868 5867 5866 5865 5864 5863 5862 5861 5859 5858 5857
5898 5898 5898 5898 5898 5897 5897 5896 5894 5894 5893 5891 5890 5889 5888 5887 5885 5884 5882 5880 5879 5878 5877 5875 5874 5872 5871 5870 5869 5868 5867 5866 5865 5864 5862 5861 5860 5859 5857 5856 5855 5853 5852
5894 5894 5894 5894 5893 5892 5891 5890 5889 5889 5888 5887 5885 5884 5883 5882 5880 5878 5877 5875 5874 5873 5872 5871 5870 5869 5867 5866 5865 5864 5863 5862 5861 5859 5858 5857 5855 5854 5853 5851 5849 5848 5846
5889 5889 5889 5889 5888 5887 5886 5885 5884 5884 5882 5881 5880 5879 5878 5876 5874 5871 5869 5869 5868 5868 5867 5866 5865 5864 5863 5862 5861 5859 5858 5857 5856 5855 5853 5852 5850 5849 5847 5845 5844 5842 5840
5884 5884 5884 5883 5882 5881 5880 5880 5878 5878 5877 5876 5874 5873 5872 5870 5868 5865 5864 5863 5862 5862 5862 5861 5860 5859 5857 5856 5855 5854 5853 5852 5851 5849 5848 5847 5845 5843 5841 5840 5838 5836 5834
5878 5878 5877 5876 5876 5875 5874 5873 5872 5871 5870 5869 5867 5865 5864 5863 5862 5860 5858 5857 5857 5856 5856 5856 5854 5853 5852 5851 5850 5849 5848 5846 5845 5844 5842 5841 5839 5837 5835 5833 5831 5829 5827
5872 5872 5871 5871 5870 5869 5868 5866 5865 5864 5863 5862 5860 5859 5857 5856 5855 5854 5852 5852 5851 5850 5850 5849 5848 5847 5846 5844 5844 5842 5841 5840 5839 5837 5836 5834 5832 5830 5828 5826 5824 5822 5820
5865 5864 5864 5864 5863 5862 5861 5860 5859 5857 5856 5855 5853 5852 5850 5848 5847 5846 5846 5846 5845 5844 5843 5842 5842 5841 5839 5838 5836 5835 5834 5833 5832 5830 5828 5827 5825 5823 5821 5818 5816 5814 5812
5857 5857 5857 5857 5856 5856 5855 5853 5852 5850 5849 5848 5846 5844 5843 5841 5840 5839 5839 5838 5838 5837 5836 5836 5835 5834 5832 5831 5829 5828 5826 5825 5824 5822 5821 5819 5817 5815 5813 5811 5809 5806 5804
5849 5848 5848 5848 5848 5848 5847 5846 5845 5843 5841 5840 5838 5837 5835 5834 5832 5832 5831 5830 5829 5829 5829 5828 5827 5826 5825 5823 5822 5820 5819 5818 5816 5814 5813 5811 5809 5807 5805 5803 5801 5799 5797
5840 5840 5839 5839 5838 5838 5838 5837 5836 5835 5833 5831 5830 5829 5827 5826 5825 5824 5823 5822 5821 5821 5820 5819 5818 5818 5817 5816 5814 5813 5811 5810 5808 5806 5804 5803 5801 5799 5797 5795 5793 5791 5789
5831 5831 5831 5830 5829 5828 5828 5828 5827 5826 5824 5823 5821 5820 5819 5818 5817 5816 5814 5813 5812 5812 5812 5811 5810 5809 5809 5807 5806 5805 5803 5801 5799 5797 5796 5794 5793 5791 5789 5787 5785 5783 5781
5821 5821 5820 5820 5819 5818 5817 5817 5817 5816 5815 5813 5812 5811 5810 5809 5808 5807 5805 5804 5804 5803 5802 5802 5801 5800 5799 5798 5797 5796 5794 5793 5791 5789 5786 5785 5784 5782 5780 5779 5777 5775 5772
5811 5810 5810 5809 5808 5807 5806 5806 5806 5805 5805 5804 5803 5802 5801 5799 5798 5797 5796 5795 5794 5793 5792 5791 5791 5790 5789 5788 5787 5786 5785 5783 5781 5779 5778 5776 5774 5773 5771 5769 5767 5765 5763
5799 5799 5798 5798 5797 5796 5795 5795 5795 5794 5793 5793 5792 5792 5791 5789 5788 5787 5785 5784 5784 5783 5782 5781 5780 5779 5778 5777 5777 5775 5774 5773 5771 5769 5768 5766 5765 5763 5761 5759 5757 5755 5753
5788 5787 5787 5787 5786 5785 5784 5783 5782 5782 5781 5781 5781 5781 5780 5778 5776 5775 5775 5774 5774 5772 5771 5770 5769 5768 5767 5766 5765 5765 5763 5762 5760 5759 5757 5756 5754 5752 5750 5748 5746 5744 5742